Home   Weather   Huntsville   Past weeks

Flag for USA Past Weather in Huntsville, Alabama, USA — Yesterday and Last 2 Weeks

Now
86 °F

Partly sunny.


Feels Like: 87 °F
Forecast: 69 / 89 °F
Wind: 15 mph from South

Location: Huntsville International / Jones Field

Current Time: Apr 29, 2017 at 6:33:06 pm

Latest Report: Apr 29, 2017 at 5:53 pm


Visibility: 10 mi

Pressure: 29.94 "Hg

Humidity: 46%

Dew Point: 63 °F

Location of HuntsvilleLocation

Past Weather in Huntsville — Graph

°F

Huntsville Temperature Yesterday

Maximum temperature yesterday: 86 °F (at 4:53 pm)
Minimum temperature yesterday: 57 °F (at 4:53 am)
Average temperature yesterday: 73 °F

High & Low Weather Summary for the Past Weeks

 TemperatureHumidityPressure
High90 °F (Apr 29, 1:53 pm)100% (Apr 22, 8:58 am)30.26 "Hg (Apr 22, 8:58 am)
Low50 °F (Apr 25, 3:05 am)31% (Apr 16, 3:53 pm)29.61 "Hg (Apr 27, 12:53 am)
Average69 °F76%29.93 "Hg
* Reported Apr 14 4:53 pm — Apr 29 4:53 pm, Huntsville, Weather by CustomWeather, © 2017

Note: Actual official high and low records may vary slightly from our data, if they occured in-between our weather recording intervals... More about our weather records

Advertising

Huntsville Weather History for the Previous 24 Hours

Scroll right to see more
 ConditionsComfort  
Time TempWeatherWind HumidityBarometerVisibility
4:53 pm
Sat, Apr 29
88 °FPartly sunny.15 mph50%29.95 "Hg10 mi
3:53 pm88 °FBroken clouds.15 mph50%29.95 "Hg10 mi
2:53 pm89 °FBroken clouds.23 mph48%29.97 "Hg10 mi
1:53 pm90 °FBroken clouds.22 mph47%29.99 "Hg10 mi
12:53 pm89 °FBroken clouds.22 mph48%29.99 "Hg10 mi
11:53 am88 °FScattered clouds.21 mph52%30.00 "Hg10 mi
10:53 am86 °FPassing clouds.17 mph57%30.01 "Hg10 mi
9:53 am83 °FScattered clouds.18 mph61%30.00 "Hg10 mi
8:53 am79 °FScattered clouds.15 mph72%30.00 "Hg10 mi
7:53 am76 °FPassing clouds.9 mph80%30.01 "Hg10 mi
6:53 am71 °FPassing clouds.6 mph93%29.99 "Hg10 mi
5:53 am70 °FClear.6 mph93%29.98 "Hg10 mi
4:53 am71 °FClear.6 mph90%29.96 "Hg10 mi
3:53 am74 °FClear.8 mph85%29.94 "Hg10 mi
2:53 am75 °FClear.13 mph85%29.92 "Hg10 mi
1:53 am75 °FClear.14 mph85%29.92 "Hg10 mi
12:53 am75 °FClear.9 mph82%29.97 "Hg10 mi
11:53 pm
Fri, Apr 28
76 °FClear.9 mph77%29.98 "Hg10 mi
10:53 pm74 °FClear.6 mph79%29.98 "Hg10 mi
9:53 pm77 °FPassing clouds.8 mph74%29.96 "Hg10 mi
8:53 pm79 °FClear.10 mph69%29.94 "Hg10 mi
7:53 pm80 °FPassing clouds.9 mph69%29.91 "Hg10 mi
6:53 pm83 °FScattered clouds.9 mph63%29.89 "Hg10 mi
Weather by CustomWeather, © 2017

See weather overviewHow to use our weather pages